15-04-2022, 00:00:04,    197,    0.0,    9.3,   0.00,   0.00, 1020.2,   74.1, -999.0
15-04-2022, 00:00:15,    197,    0.0,    9.4,   0.00,   0.00, 1020.2,   74.1, -999.0
15-04-2022, 00:00:25,    197,    0.0,    9.4,   0.00,   0.00, 1020.2,   74.2, -999.0
15-04-2022, 00:00:34,    197,    0.0,    9.4,   0.00,   0.00, 1020.2,   74.1, -999.0
15-04-2022, 00:00:44,    197,    0.0,    9.4,   0.00,   0.00, 1020.2,   74.1, -999.0
15-04-2022, 00:00:55,    197,    0.0,    9.3,   0.00,   0.00, 1020.2,   74.2, -999.0
15-04-2022, 00:01:04,    197,    0.0,    9.4,   0.00,   0.00, 1020.2,   74.2, -999.0
15-04-2022, 00:01:14,    197,    0.0,    9.4,   0.00,   0.00, 1020.2,   74.2, -999.0
15-04-2022, 00:01:24,    197,    0.0,    9.4,   0.00,   0.00, 1020.2,   74.1, -999.0
15-04-2022, 00:01:34,    197,    0.0,    9.4,   0.00,   0.00, 1020.2,   74.1, -999.0
15-04-2022, 00:01:44,    197,    0.0,    9.4,   0.00,   0.00, 1020.2,   74.1, -999.0
15-04-2022, 00:01:54,    197,    0.0,    9.3,   0.00,   0.00, 1020.2,   74.1, -999.0
15-04-2022, 00:02:04,    197,    0.0,    9.4,   0.00,   0.00, 1020.2,   74.1, -999.0
15-04-2022, 00:02:14,    197,    0.0,    9.4,   0.00,   0.00, 1020.2,   74.1, -999.0
15-04-2022, 00:02:24,    197,    0.0,    9.4,   0.00,   0.00, 1020.2,   74.1, -999.0
15-04-2022, 00:02:34,    197,    0.0,    9.4,   0.00,   0.00, 1020.2,   74.0, -999.0
15-04-2022, 00:02:44,    197,    0.0,    9.4,   0.00,   0.00, 1020.2,   74.0, -999.0
15-04-2022, 00:02:54,    197,    0.0,    9.3,   0.00,   0.00, 1020.2,   74.1, -999.0
15-04-2022, 00:03:04,    197,    0.0,    9.3,   0.00,   0.00, 1020.2,   74.1, -999.0
15-04-2022, 00:03:13,    197,    0.0,    9.3,   0.00,   0.00, 1020.3,   74.0, -999.0
15-04-2022, 00:03:24,    197,    0.0,    9.3,   0.00,   0.00, 1020.2,   74.1, -999.0
15-04-2022, 00:03:34,    199,    0.0,    9.3,   0.00,   0.00, 1020.3,   74.1, -999.0
15-04-2022, 00:03:43,    197,    0.0,    9.3,   0.00,   0.00, 1020.2,   74.3, -999.0
15-04-2022, 00:03:53,    197,    0.0,    9.3,   0.00,   0.00, 1020.2,   74.3, -999.0
15-04-2022, 00:04:04,    197,    0.0,    9.3,   0.00,   0.00, 1020.2,   74.4, -999.0
15-04-2022, 00:04:13,    198,    0.0,    9.3,   0.00,   0.00, 1020.2,   74.4, -999.0
15-04-2022, 00:04:23,    197,    0.0,    9.4,   0.00,   0.00, 1020.2,   74.3, -999.0
15-04-2022, 00:04:34,    197,    0.0,    9.4,   0.00,   0.00, 1020.3,   74.4, -999.0
15-04-2022, 00:04:43,    197,    0.0,    9.4,   0.00,   0.00, 1020.2,   74.4, -999.0
15-04-2022, 00:04:53,    197,    0.0,    9.4,   0.00,   0.00, 1020.2,   74.4, -999.0
15-04-2022, 00:05:03,    197,    0.0,    9.4,   0.00,   0.00, 1020.2,   74.5, -999.0
15-04-2022, 00:05:13,    198,    0.0,    9.4,   0.00,   0.00, 1020.3,   74.5, -999.0
15-04-2022, 00:05:23,    197,    0.0,    9.4,   0.00,   0.00, 1020.2,   74.5, -999.0
15-04-2022, 00:05:33,    197,    0.0,    9.4,   0.00,   0.00, 1020.3,   74.4, -999.0
15-04-2022, 00:05:43,    197,    0.0,    9.4,   0.00,   0.00, 1020.2,   74.4, -999.0
15-04-2022, 00:05:53,    197,    0.0,    9.5,   0.00,   0.00, 1020.2,   74.5, -999.0
15-04-2022, 00:06:03,    197,    0.0,    9.5,   0.00,   0.00, 1020.2,   74.5, -999.0
15-04-2022, 00:06:13,    196,    0.0,    9.5,   0.00,   0.00, 1020.3,   74.4, -999.0
15-04-2022, 00:06:23,    197,    0.0,    9.5,   0.00,   0.00, 1020.3,   74.6, -999.0
15-04-2022, 00:06:33,    196,    0.0,    9.5,   0.00,   0.00, 1020.3,   74.4, -999.0
15-04-2022, 00:06:43,    197,    0.0,    9.5,   0.00,   0.00, 1020.3,   74.3, -999.0
15-04-2022, 00:06:52,    197,    0.0,    9.5,   0.00,   0.00, 1020.2,   74.3, -999.0
15-04-2022, 00:07:03,    197,    0.0,    9.5,   0.00,   0.00, 1020.3,   74.2, -999.0
15-04-2022, 00:07:13,    197,    0.0,    9.4,   0.00,   0.00, 1020.3,   74.1, -999.0
15-04-2022, 00:07:22,    197,    0.0,    9.4,   0.00,   0.00, 1020.3,   74.1, -999.0
15-04-2022, 00:07:32,    197,    0.0,    9.4,   0.00,   0.00, 1020.3,   74.1, -999.0
15-04-2022, 00:07:43,    197,    0.0,    9.4,   0.00,   0.00, 1020.3,   74.0, -999.0
15-04-2022, 00:07:52,    197,    0.0,    9.4,   0.00,   0.00, 1020.3,   74.0, -999.0
15-04-2022, 00:08:02,    197,    0.0,    9.4,   0.00,   0.00, 1020.3,   74.0, -999.0
15-04-2022, 00:08:12,    198,    0.0,    9.4,   0.00,   0.00, 1020.2,   74.1, -999.0
15-04-2022, 00:08:22,    197,    0.0,    9.3,   0.00,   0.00, 1020.3,   74.1, -999.0
15-04-2022, 00:08:32,    197,    0.0,    9.4,   0.00,   0.00, 1020.3,   74.2, -999.0
15-04-2022, 00:08:42,    197,    0.0,    9.5,   0.00,   0.00, 1020.3,   74.4, -999.0
15-04-2022, 00:08:52,    197,    0.0,    9.5,   0.00,   0.00, 1020.2,   74.5, -999.0
15-04-2022, 00:09:02,    197,    0.0,    9.5,   0.00,   0.00, 1020.2,   74.6, -999.0
15-04-2022, 00:09:12,    197,    0.0,    9.5,   0.00,   0.00, 1020.2,   74.4, -999.0
15-04-2022, 00:09:22,    197,    0.0,    9.5,   0.00,   0.00, 1020.2,   74.3, -999.0
15-04-2022, 00:09:32,    197,    0.0,    9.5,   0.00,   0.00, 1020.2,   74.1, -999.0
15-04-2022, 00:09:42,    197,    0.0,    9.5,   0.00,   0.00, 1020.2,   74.0, -999.0
15-04-2022, 00:09:52,    197,    0.0,    9.5,   0.00,   0.00, 1020.2,   74.1, -999.0
15-04-2022, 00:10:01,    197,    0.0,    9.4,   0.00,   0.00, 1020.2,   74.0, -999.0
15-04-2022, 00:10:12,    197,    0.0,    9.4,   0.00,   0.00, 1020.3,   74.1, -999.0
15-04-2022, 00:10:22,    197,    0.0,    9.4,   0.00,   0.00, 1020.2,   74.0, -999.0
15-04-2022, 00:10:31,    197,    0.0,    9.3,   0.00,   0.00, 1020.2,   74.1, -999.0
15-04-2022, 00:10:41,    197,    0.0,    9.4,   0.00,   0.00, 1020.2,   74.1, -999.0
15-04-2022, 00:10:52,    197,    0.0,    9.4,   0.00,   0.00, 1020.2,   74.2, -999.0
15-04-2022, 00:11:01,    197,    0.0,    9.3,   0.00,   0.00, 1020.2,   74.2, -999.0
15-04-2022, 00:11:11,    197,    0.0,    9.4,   0.00,   0.00, 1020.3,   74.2, -999.0
15-04-2022, 00:11:21,    197,    0.0,    9.4,   0.00,   0.00, 1020.3,   74.2, -999.0
15-04-2022, 00:11:31,    197,    0.0,    9.3,   0.00,   0.00, 1020.3,   74.0, -999.0
15-04-2022, 00:11:41,    197,    0.0,    9.4,   0.00,   0.00, 1020.2,   74.1, -999.0
15-04-2022, 00:11:51,    197,    0.0,    9.3,   0.00,   0.00, 1020.3,   74.1, -999.0
15-04-2022, 00:12:01,    197,    0.0,    9.3,   0.00,   0.00, 1020.3,   74.2, -999.0
15-04-2022, 00:12:11,    197,    0.0,    9.4,   0.00,   0.00, 1020.3,   74.1, -999.0
15-04-2022, 00:12:21,    197,    0.0,    9.4,   0.00,   0.00, 1020.2,   74.2, -999.0
15-04-2022, 00:12:31,    197,    0.0,    9.4,   0.00,   0.00, 1020.3,   74.2, -999.0
15-04-2022, 00:12:41,    197,    0.0,    9.3,   0.00,   0.00, 1020.3,   74.1, -999.0
15-04-2022, 00:12:51,    197,    0.0,    9.4,   0.00,   0.00, 1020.3,   74.2, -999.0
15-04-2022, 00:13:01,    197,    0.0,    9.4,   0.00,   0.00, 1020.3,   74.2, -999.0
15-04-2022, 00:13:10,    197,    0.0,    9.3,   0.00,   0.00, 1020.3,   74.1, -999.0
15-04-2022, 00:13:21,    197,    0.0,    9.3,   0.00,   0.00, 1020.3,   74.2, -999.0
15-04-2022, 00:13:31,    197,    0.0,    9.3,   0.00,   0.00, 1020.3,   74.3, -999.0
15-04-2022, 00:13:40,    197,    0.0,    9.3,   0.00,   0.00, 1020.3,   74.2, -999.0
15-04-2022, 00:13:51,    198,    0.0,    9.3,   0.00,   0.00, 1020.3,   74.3, -999.0
15-04-2022, 00:14:01,    197,    0.0,    9.2,   0.00,   0.00, 1020.3,   74.4, -999.0
15-04-2022, 00:14:10,    197,    0.0,    9.2,   0.00,   0.00, 1020.3,   74.4, -999.0
15-04-2022, 00:14:20,    197,    0.0,    9.3,   0.00,   0.00, 1020.3,   74.4, -999.0
15-04-2022, 00:14:30,    197,    0.0,    9.3,   0.00,   0.00, 1020.3,   74.5, -999.0
15-04-2022, 00:14:40,    197,    0.0,    9.3,   0.00,   0.00, 1020.3,   74.4, -999.0
15-04-2022, 00:14:50,    197,    0.0,    9.3,   0.00,   0.00, 1020.4,   74.3, -999.0
15-04-2022, 00:15:00,    197,    0.0,    9.3,   0.00,   0.00, 1020.3,   74.3, -999.0
15-04-2022, 00:15:10,    197,    0.0,    9.3,   0.00,   0.00, 1020.3,   74.4, -999.0
15-04-2022, 00:15:20,    197,    0.0,    9.3,   0.00,   0.00, 1020.3,   74.4, -999.0
15-04-2022, 00:15:30,    197,    0.0,    9.2,   0.00,   0.00, 1020.3,   74.4, -999.0
15-04-2022, 00:15:40,    197,    0.0,    9.2,   0.00,   0.00, 1020.3,   74.4, -999.0
15-04-2022, 00:15:50,    197,    0.0,    9.2,   0.00,   0.00, 1020.3,   74.6, -999.0
15-04-2022, 00:16:00,    197,    0.0,    9.2,   0.00,   0.00, 1020.3,   74.6, -999.0
15-04-2022, 00:16:10,    197,    0.0,    9.2,   0.00,   0.00, 1020.3,   74.5, -999.0
15-04-2022, 00:16:20,    197,    0.0,    9.2,   0.00,   0.00, 1020.3,   74.6, -999.0
15-04-2022, 00:16:30,    197,    0.0,    9.2,   0.00,   0.00, 1020.3,   74.6, -999.0
15-04-2022, 00:16:40,    197,    0.0,    9.2,   0.00,   0.00, 1020.3,   74.6, -999.0
15-04-2022, 00:16:49,    197,    0.0,    9.1,   0.00,   0.00, 1020.4,   74.6, -999.0
15-04-2022, 00:17:00,    197,    0.0,    9.2,   0.00,   0.00, 1020.3,   74.7, -999.0
15-04-2022, 00:17:10,    197,    0.0,    9.2,   0.00,   0.00, 1020.4,   74.7, -999.0
15-04-2022, 00:17:19,    197,    0.0,    9.2,   0.00,   0.00, 1020.3,   74.6, -999.0
15-04-2022, 00:17:29,    197,    0.0,    9.2,   0.00,   0.00, 1020.3,   74.6, -999.0
15-04-2022, 00:17:39,    197,    0.0,    9.2,   0.00,   0.00, 1020.3,   74.7, -999.0
15-04-2022, 00:17:49,    197,    0.0,    9.1,   0.00,   0.00, 1020.3,   74.7, -999.0
15-04-2022, 00:17:59,    197,    0.0,    9.2,   0.00,   0.00, 1020.3,   74.7, -999.0
15-04-2022, 00:18:09,    197,    0.0,    9.2,   0.00,   0.00, 1020.3,   74.8, -999.0
15-04-2022, 00:18:19,    197,    0.0,    9.1,   0.00,   0.00, 1020.3,   74.7, -999.0
15-04-2022, 00:18:29,    197,    0.0,    9.2,   0.00,   0.00, 1020.4,   74.7, -999.0
15-04-2022, 00:18:39,    197,    0.0,    9.1,   0.00,   0.00, 1020.3,   74.7, -999.0
15-04-2022, 00:18:49,    197,    0.0,    9.1,   0.00,   0.00, 1020.4,   74.8, -999.0
15-04-2022, 00:18:59,    197,    0.0,    9.1,   0.00,   0.00, 1020.3,   74.9, -999.0
15-04-2022, 00:19:09,    197,    0.0,    9.0,   0.00,   0.00, 1020.3,   74.8, -999.0
15-04-2022, 00:19:19,    197,    0.0,    9.2,   0.00,   0.00, 1020.3,   74.9, -999.0
15-04-2022, 00:19:29,    197,    0.0,    9.1,   0.00,   0.00, 1020.3,   74.9, -999.0
15-04-2022, 00:19:39,    197,    0.0,    9.2,   0.00,   0.00, 1020.3,   75.0, -999.0
15-04-2022, 00:19:49,    197,    0.0,    9.1,   0.00,   0.00, 1020.3,   75.0, -999.0
15-04-2022, 00:19:59,    197,    0.0,    9.1,   0.00,   0.00, 1020.3,   75.0, -999.0
15-04-2022, 00:20:09,    197,    0.0,    9.1,   0.00,   0.00, 1020.3,   74.9, -999.0
15-04-2022, 00:20:19,    198,    0.0,    9.2,   0.00,   0.00, 1020.3,   75.0, -999.0
15-04-2022, 00:20:28,    197,    0.0,    9.2,   0.00,   0.00, 1020.3,   75.0, -999.0
15-04-2022, 00:20:39,    197,    0.0,    9.1,   0.00,   0.00, 1020.4,   74.9, -999.0
15-04-2022, 00:20:48,    197,    0.0,    9.1,   0.00,   0.00, 1020.3,   75.2, -999.0
15-04-2022, 00:20:58,    198,    0.0,    9.1,   0.00,   0.00, 1020.4,   75.1, -999.0
15-04-2022, 00:21:08,    197,    0.0,    9.1,   0.00,   0.00, 1020.3,   75.2, -999.0
15-04-2022, 00:21:18,    197,    0.0,    9.0,   0.00,   0.00, 1020.3,   75.3, -999.0
15-04-2022, 00:21:28,    197,    0.0,    9.1,   0.00,   0.00, 1020.3,   75.2, -999.0
15-04-2022, 00:21:38,    197,    0.0,    9.1,   0.00,   0.00, 1020.3,   75.2, -999.0
15-04-2022, 00:21:48,    197,    0.0,    9.1,   0.00,   0.00, 1020.3,   75.2, -999.0
15-04-2022, 00:21:58,    197,    0.0,    9.1,   0.00,   0.00, 1020.3,   75.2, -999.0
15-04-2022, 00:22:08,    197,    0.0,    9.1,   0.00,   0.00, 1020.3,   75.1, -999.0
15-04-2022, 00:22:18,    197,    0.0,    9.1,   0.00,   0.00, 1020.4,   75.2, -999.0
15-04-2022, 00:22:28,    197,    0.0,    9.1,   0.00,   0.00, 1020.3,   75.2, -999.0
15-04-2022, 00:22:38,    197,    0.0,    9.1,   0.00,   0.00, 1020.3,   75.1, -999.0
15-04-2022, 00:22:48,    197,    0.0,    9.1,   0.00,   0.00, 1020.3,   75.1, -999.0
15-04-2022, 00:22:58,    197,    0.0,    9.1,   0.00,   0.00, 1020.3,   75.2, -999.0
15-04-2022, 00:23:08,    197,    0.0,    9.1,   0.00,   0.00, 1020.3,   75.2, -999.0
15-04-2022, 00:23:18,    197,    0.0,    9.1,   0.00,   0.00, 1020.3,   75.3, -999.0
15-04-2022, 00:23:28,    197,    0.0,    9.1,   0.00,   0.00, 1020.3,   75.3, -999.0
15-04-2022, 00:23:37,    197,    0.0,    9.1,   0.00,   0.00, 1020.3,   75.2, -999.0
15-04-2022, 00:23:48,    197,    0.0,    9.1,   0.00,   0.00, 1020.3,   75.3, -999.0
15-04-2022, 00:23:57,    197,    0.0,    9.1,   0.00,   0.00, 1020.4,   75.3, -999.0
15-04-2022, 00:24:07,    197,    0.0,    9.1,   0.00,   0.00, 1020.4,   75.4, -999.0
15-04-2022, 00:24:18,    197,    0.0,    9.1,   0.00,   0.00, 1020.3,   75.3, -999.0
15-04-2022, 00:24:27,    197,    0.0,    9.1,   0.00,   0.00, 1020.4,   75.3, -999.0
15-04-2022, 00:24:37,    197,    0.0,    9.1,   0.00,   0.00, 1020.4,   75.3, -999.0
15-04-2022, 00:24:47,    197,    0.0,    9.1,   0.00,   0.00, 1020.4,   75.2, -999.0
15-04-2022, 00:24:57,    197,    0.0,    9.1,   0.00,   0.00, 1020.3,   75.4, -999.0
15-04-2022, 00:25:07,    197,    0.0,    9.0,   0.00,   0.00, 1020.4,   75.4, -999.0
15-04-2022, 00:25:17,    197,    0.0,    9.2,   0.00,   0.00, 1020.4,   75.3, -999.0
15-04-2022, 00:25:27,    197,    0.0,    9.1,   0.00,   0.00, 1020.4,   75.3, -999.0
15-04-2022, 00:25:37,    197,    0.0,    9.1,   0.00,   0.00, 1020.4,   75.4, -999.0
15-04-2022, 00:25:47,    197,    0.0,    9.1,   0.00,   0.00, 1020.4,   75.4, -999.0
15-04-2022, 00:25:57,    197,    0.0,    9.1,   0.00,   0.00, 1020.4,   75.5, -999.0
15-04-2022, 00:26:07,    197,    0.0,    9.1,   0.00,   0.00, 1020.4,   75.4, -999.0
15-04-2022, 00:26:17,    197,    0.0,    9.1,   0.00,   0.00, 1020.3,   75.3, -999.0
15-04-2022, 00:26:27,    197,    0.0,    9.1,   0.00,   0.00, 1020.4,   75.4, -999.0
15-04-2022, 00:26:37,    197,    0.0,    9.1,   0.00,   0.00, 1020.4,   75.5, -999.0
15-04-2022, 00:26:46,    197,    0.0,    9.1,   0.00,   0.00, 1020.4,   75.4, -999.0
15-04-2022, 00:26:57,    197,    0.0,    9.1,   0.00,   0.00, 1020.4,   75.5, -999.0
15-04-2022, 00:27:07,    197,    0.0,    9.1,   0.00,   0.00, 1020.4,   75.5, -999.0
15-04-2022, 00:27:16,    197,    0.0,    9.1,   0.00,   0.00, 1020.4,   75.4, -999.0
15-04-2022, 00:27:27,    197,    0.0,    9.1,   0.00,   0.00, 1020.4,   75.6, -999.0
15-04-2022, 00:27:36,    197,    0.0,    9.1,   0.00,   0.00, 1020.4,   75.5, -999.0
15-04-2022, 00:27:46,    198,    0.0,    9.1,   0.00,   0.00, 1020.4,   75.6, -999.0
15-04-2022, 00:27:56,    197,    0.0,    9.1,   0.00,   0.00, 1020.4,   75.6, -999.0
15-04-2022, 00:28:06,    197,    0.0,    9.1,   0.00,   0.00, 1020.4,   75.6, -999.0
15-04-2022, 00:28:16,    197,    0.0,    9.1,   0.00,   0.00, 1020.4,   75.6, -999.0
15-04-2022, 00:28:26,    197,    0.0,    9.0,   0.00,   0.00, 1020.4,   75.5, -999.0
15-04-2022, 00:28:36,    197,    0.0,    9.1,   0.00,   0.00, 1020.4,   75.6, -999.0
15-04-2022, 00:28:46,    197,    0.0,    9.0,   0.00,   0.00, 1020.4,   75.8, -999.0
15-04-2022, 00:28:56,    198,    0.0,    9.0,   0.00,   0.00, 1020.4,   75.7, -999.0
15-04-2022, 00:29:06,    197,    0.0,    9.0,   0.00,   0.00, 1020.4,   75.7, -999.0
15-04-2022, 00:29:16,    197,    0.0,    9.1,   0.00,   0.00, 1020.4,   75.6, -999.0
15-04-2022, 00:29:26,    197,    0.0,    9.1,   0.00,   0.00, 1020.4,   75.7, -999.0
15-04-2022, 00:29:36,    197,    0.0,    9.1,   0.00,   0.00, 1020.4,   75.8, -999.0
15-04-2022, 00:29:46,    198,    0.0,    9.1,   0.00,   0.00, 1020.4,   75.7, -999.0
15-04-2022, 00:29:56,    197,    0.0,    9.0,   0.00,   0.00, 1020.4,   75.7, -999.0
15-04-2022, 00:30:06,    197,    0.0,    9.0,   0.00,   0.00, 1020.4,   75.7, -999.0
15-04-2022, 00:30:16,    199,    0.0,    9.0,   0.00,   0.00, 1020.4,   75.6, -999.0
15-04-2022, 00:30:25,    197,    0.0,    9.0,   0.00,   0.00, 1020.4,   75.7, -999.0
15-04-2022, 00:30:36,    197,    0.0,    9.1,   0.00,   0.00, 1020.4,   75.7, -999.0
15-04-2022, 00:30:45,    197,    0.0,    9.1,   0.00,   0.00, 1020.4,   75.7, -999.0
15-04-2022, 00:30:55,    197,    0.0,    9.1,   0.00,   0.00, 1020.4,   75.8, -999.0
15-04-2022, 00:31:05,    197,    0.0,    9.0,   0.00,   0.00, 1020.4,   75.8, -999.0
15-04-2022, 00:31:15,    197,    0.0,    9.1,   0.00,   0.00, 1020.4,   75.8, -999.0
15-04-2022, 00:31:25,    197,    0.0,    9.0,   0.00,   0.00, 1020.4,   76.0, -999.0
15-04-2022, 00:31:35,    197,    0.0,    9.1,   0.00,   0.00, 1020.4,   75.9, -999.0
15-04-2022, 00:31:45,    197,    0.0,    9.0,   0.00,   0.00, 1020.4,   75.9, -999.0
15-04-2022, 00:31:55,    197,    0.0,    9.1,   0.00,   0.00, 1020.4,   75.9, -999.0
15-04-2022, 00:32:05,    197,    0.0,    9.0,   0.00,   0.00, 1020.4,   75.8, -999.0
15-04-2022, 00:32:15,    197,    0.0,    9.0,   0.00,   0.00, 1020.4,   75.8, -999.0
15-04-2022, 00:32:25,    197,    0.0,    8.9,   0.00,   0.00, 1020.4,   75.7, -999.0
15-04-2022, 00:32:35,    197,    0.0,    8.9,   0.00,   0.00, 1020.4,   75.8, -999.0
15-04-2022, 00:32:45,    197,    0.0,    9.0,   0.00,   0.00, 1020.4,   75.8, -999.0
15-04-2022, 00:32:55,    197,    0.0,    9.0,   0.00,   0.00, 1020.4,   75.9, -999.0
15-04-2022, 00:33:05,    197,    0.0,    9.0,   0.00,   0.00, 1020.4,   75.9, -999.0
15-04-2022, 00:33:15,    197,    0.0,    9.0,   0.00,   0.00, 1020.4,   75.9, -999.0
15-04-2022, 00:33:25,    197,    0.0,    9.0,   0.00,   0.00, 1020.4,   76.0, -999.0
15-04-2022, 00:33:34,    197,    0.0,    8.9,   0.00,   0.00, 1020.4,   75.9, -999.0
15-04-2022, 00:33:45,    197,    0.0,    8.9,   0.00,   0.00, 1020.3,   76.0, -999.0
15-04-2022, 00:33:54,    197,    0.0,    9.0,   0.00,   0.00, 1020.3,   76.0, -999.0
15-04-2022, 00:34:04,    197,    0.0,    8.9,   0.00,   0.00, 1020.3,   75.9, -999.0
15-04-2022, 00:34:15,    197,    0.0,    8.9,   0.00,   0.00, 1020.4,   75.9, -999.0
15-04-2022, 00:34:24,    197,    0.0,    9.0,   0.00,   0.00, 1020.4,   76.0, -999.0
15-04-2022, 00:34:34,    197,    0.0,    8.9,   0.00,   0.00, 1020.3,   76.0, -999.0
15-04-2022, 00:34:44,    198,    0.0,    8.8,   0.00,   0.00, 1020.4,   76.0, -999.0
15-04-2022, 00:34:54,    197,    0.0,    8.9,   0.00,   0.00, 1020.4,   76.0, -999.0
15-04-2022, 00:35:04,    197,    0.0,    8.9,   0.00,   0.00, 1020.4,   75.9, -999.0
15-04-2022, 00:35:14,    197,    0.0,    8.9,   0.00,   0.00, 1020.3,   75.9, -999.0
15-04-2022, 00:35:24,    197,    0.0,    8.9,   0.00,   0.00, 1020.4,   76.0, -999.0
15-04-2022, 00:35:34,    197,    0.0,    8.8,   0.00,   0.00, 1020.3,   76.1, -999.0
15-04-2022, 00:35:44,    197,    0.0,    8.9,   0.00,   0.00, 1020.4,   76.1, -999.0
15-04-2022, 00:35:54,    197,    0.0,    9.0,   0.00,   0.00, 1020.3,   76.2, -999.0
15-04-2022, 00:36:04,    197,    0.0,    8.9,   0.00,   0.00, 1020.4,   76.2, -999.0
15-04-2022, 00:36:14,    198,    0.0,    8.9,   0.00,   0.00, 1020.3,   76.1, -999.0
15-04-2022, 00:36:24,    197,    0.0,    8.9,   0.00,   0.00, 1020.3,   76.1, -999.0
15-04-2022, 00:36:34,    197,    0.0,    8.9,   0.00,   0.00, 1020.4,   76.3, -999.0
15-04-2022, 00:36:44,    197,    0.0,    8.9,   0.00,   0.00, 1020.3,   76.3, -999.0
15-04-2022, 00:36:54,    197,    0.0,    8.9,   0.00,   0.00, 1020.3,   76.4, -999.0
15-04-2022, 00:37:03,    197,    0.0,    8.9,   0.00,   0.00, 1020.4,   76.3, -999.0
15-04-2022, 00:37:13,    197,    0.0,    8.9,   0.00,   0.00, 1020.3,   76.2, -999.0
15-04-2022, 00:37:24,    197,    0.0,    8.9,   0.00,   0.00, 1020.4,   76.3, -999.0
15-04-2022, 00:37:33,    197,    0.0,    8.8,   0.00,   0.00, 1020.4,   76.2, -999.0
15-04-2022, 00:37:43,    197,    0.0,    8.9,   0.00,   0.00, 1020.3,   76.2, -999.0
15-04-2022, 00:37:53,    197,    0.0,    8.9,   0.00,   0.00, 1020.4,   76.1, -999.0
15-04-2022, 00:38:03,    197,    0.0,    8.8,   0.00,   0.00, 1020.4,   76.1, -999.0
15-04-2022, 00:38:13,    197,    0.0,    8.8,   0.00,   0.00, 1020.4,   76.0, -999.0
15-04-2022, 00:38:23,    197,    0.0,    8.8,   0.00,   0.00, 1020.4,   76.2, -999.0
15-04-2022, 00:38:33,    197,    0.0,    8.8,   0.00,   0.00, 1020.3,   76.4, -999.0
15-04-2022, 00:38:43,    197,    0.0,    8.9,   0.00,   0.00, 1020.4,   76.3, -999.0
15-04-2022, 00:38:53,    197,    0.0,    8.9,   0.00,   0.00, 1020.4,   76.4, -999.0
15-04-2022, 00:39:03,    197,    0.0,    8.9,   0.00,   0.00, 1020.4,   76.4, -999.0
15-04-2022, 00:39:13,    197,    0.0,    8.9,   0.00,   0.00, 1020.3,   76.5, -999.0
15-04-2022, 00:39:23,    197,    0.0,    8.9,   0.00,   0.00, 1020.3,   76.6, -999.0
15-04-2022, 00:39:33,    197,    0.0,    8.9,   0.00,   0.00, 1020.4,   76.5, -999.0
15-04-2022, 00:39:43,    197,    0.0,    8.9,   0.00,   0.00, 1020.4,   76.5, -999.0
15-04-2022, 00:39:53,    197,    0.0,    9.0,   0.00,   0.00, 1020.4,   76.6, -999.0
15-04-2022, 00:40:03,    197,    0.0,    8.9,   0.00,   0.00, 1020.4,   76.5, -999.0
15-04-2022, 00:40:13,    197,    0.0,    8.9,   0.00,   0.00, 1020.4,   76.4, -999.0
15-04-2022, 00:40:22,    197,    0.0,    8.9,   0.00,   0.00, 1020.4,   76.4, -999.0
15-04-2022, 00:40:33,    197,    0.0,    8.8,   0.00,   0.00, 1020.4,   76.5, -999.0
15-04-2022, 00:40:42,    197,    0.0,    9.0,   0.00,   0.00, 1020.4,   76.5, -999.0
15-04-2022, 00:40:52,    197,    0.0,    8.9,   0.00,   0.00, 1020.4,   76.5, -999.0
15-04-2022, 00:41:02,    197,    0.0,    8.9,   0.00,   0.00, 1020.4,   76.5, -999.0
15-04-2022, 00:41:12,    197,    0.0,    8.9,   0.00,   0.00, 1020.4,   76.4, -999.0
15-04-2022, 00:41:22,    197,    0.0,    8.9,   0.00,   0.00, 1020.4,   76.4, -999.0
15-04-2022, 00:41:32,    197,    0.0,    8.9,   0.00,   0.00, 1020.4,   76.3, -999.0
15-04-2022, 00:41:42,    197,    0.0,    8.9,   0.00,   0.00, 1020.4,   76.5, -999.0
15-04-2022, 00:41:52,    197,    0.0,    8.9,   0.00,   0.00, 1020.3,   76.5, -999.0
15-04-2022, 00:42:02,    197,    0.0,    9.1,   0.00,   0.00, 1020.4,   76.6, -999.0
15-04-2022, 00:42:12,    197,    0.0,    9.1,   0.00,   0.00, 1020.4,   76.6, -999.0
15-04-2022, 00:42:22,    197,    0.0,    9.0,   0.00,   0.00, 1020.4,   76.5, -999.0
15-04-2022, 00:42:32,    197,    0.0,    9.0,   0.00,   0.00, 1020.4,   76.5, -999.0
15-04-2022, 00:42:42,    197,    0.0,    9.0,   0.00,   0.00, 1020.4,   76.4, -999.0
15-04-2022, 00:42:52,    197,    0.0,    9.0,   0.00,   0.00, 1020.4,   76.3, -999.0
15-04-2022, 00:43:02,    197,    0.0,    9.0,   0.00,   0.00, 1020.4,   76.3, -999.0
15-04-2022, 00:43:12,    197,    0.0,    8.9,   0.00,   0.00, 1020.4,   76.1, -999.0
15-04-2022, 00:43:22,    197,    0.0,    9.0,   0.00,   0.00, 1020.4,   76.2, -999.0
15-04-2022, 00:43:31,    197,    0.0,    9.0,   0.00,   0.00, 1020.4,   76.2, -999.0
15-04-2022, 00:43:42,    197,    0.0,    8.9,   0.00,   0.00, 1020.4,   76.1, -999.0
15-04-2022, 00:43:51,    197,    0.0,    8.8,   0.00,   0.00, 1020.4,   76.2, -999.0
15-04-2022, 00:44:01,    197,    0.0,    8.9,   0.00,   0.00, 1020.4,   76.2, -999.0
15-04-2022, 00:44:12,    197,    0.0,    8.9,   0.00,   0.00, 1020.4,   76.2, -999.0
15-04-2022, 00:44:21,    197,    0.0,    8.9,   0.00,   0.00, 1020.4,   76.1, -999.0
15-04-2022, 00:44:31,    197,    0.0,    8.9,   0.00,   0.00, 1020.4,   76.2, -999.0
15-04-2022, 00:44:41,    197,    0.0,    8.9,   0.00,   0.00, 1020.4,   76.1, -999.0
15-04-2022, 00:44:51,    197,    0.0,    8.8,   0.00,   0.00, 1020.4,   76.1, -999.0
15-04-2022, 00:45:01,    197,    0.0,    8.8,   0.00,   0.00, 1020.4,   76.1, -999.0
15-04-2022, 00:45:11,    197,    0.0,    8.9,   0.00,   0.00, 1020.4,   76.1, -999.0
15-04-2022, 00:45:21,    197,    0.0,    8.8,   0.00,   0.00, 1020.4,   76.4, -999.0
15-04-2022, 00:45:31,    197,    0.0,    8.7,   0.00,   0.00, 1020.4,   76.2, -999.0
15-04-2022, 00:45:41,    197,    0.0,    8.8,   0.00,   0.00, 1020.4,   76.2, -999.0
15-04-2022, 00:45:51,    197,    0.0,    8.8,   0.00,   0.00, 1020.4,   76.1, -999.0
15-04-2022, 00:46:01,    197,    0.0,    8.8,   0.00,   0.00, 1020.4,   76.2, -999.0
15-04-2022, 00:46:11,    197,    0.0,    8.7,   0.00,   0.00, 1020.4,   76.2, -999.0
15-04-2022, 00:46:21,    197,    0.0,    8.7,   0.00,   0.00, 1020.4,   76.2, -999.0
15-04-2022, 00:46:31,    197,    0.0,    8.7,   0.00,   0.00, 1020.4,   76.2, -999.0
15-04-2022, 00:46:41,    197,    0.0,    8.6,   0.00,   0.00, 1020.4,   76.3, -999.0